Miscellaneous Local Product
Issued by NWS Hastings, NE

Home | Current Version | Previous Version | Text Only | Print | Product List | Glossary On
Versions: 1 2 3 4 5 6 7 8 9 10 11 12 13 14 15 16 17 18 19 20 21 22 23 24 25 26 27 28 29 30 31 32 33 34 35 36 37 38 39 40 41 42 43 44 45 46 47 48 49 50
680
AXUS43 KGID 280102
MISGRI

GID CWA HOURLY WEATHER ROUNDUP
NATIONAL WEATHER SERVICE HASTINGS NE
800 PM CDT THU APR 27 2017

NOTE: "FAIR" INDICATES FEW OR NO CLOUDS BELOW 12,000 FEET WITH NO
SIGNIFICANT WEATHER AND/OR OBSTRUCTIONS TO VISIBILITY.

...SOUTH CENTRAL NEBRASKA...

CITY           SKY/WX    TMP DP  RH WIND       PRES   REMARKS
GRAND ISLAND   PTCLDY    53  37  54 SE9       29.68S
HASTINGS       LGT RAIN  48  42  80 S14G23    29.70R
KEARNEY        CLOUDY    46  39  76 S15       29.67R
ORD            CLOUDY    48  40  73 E6        29.67R
YORK           CLOUDY    54  37  54 SE8       29.70S
AURORA         CLOUDY    53  34  47 SE12      29.69R
LEXINGTON      CLOUDY    48  40  73 SE12G22   29.64R
HOLDREGE       DRIZZLE   46  42  88 SE16G23   29.64F
HEBRON         LGT RAIN  48  44  88 SE7       29.71S

...NEBRASKA PANHANDLE...

CITY           SKY/WX    TMP DP  RH WIND       PRES   REMARKS
CHADRON        LGT RAIN  43  40  89 NE12      29.62R
ALLIANCE       LGT RAIN  43  41  93 SE7       29.60R
SCOTTSBLUFF    CLOUDY    44  41  89 E13       29.55S
SIDNEY         RAIN      39  36  89 NW13      29.61R FOG     WCI  31

...WESTERN AND NORTH CENTRAL NEBRASKA...

CITY           SKY/WX    TMP DP  RH WIND       PRES   REMARKS
VALENTINE      CLOUDY    52  30  43 E12       29.66R
AINSWORTH      CLOUDY    50  36  59 E9        29.67R
ONEILL         CLEAR     50  35  54 SE5       29.70R
BROKEN BOW     CLOUDY    49  35  58 E12       29.64S
IMPERIAL       LGT RAIN  46  41  82 E16       29.56R
NORTH PLATTE   LGT RAIN  48  41  76 SE14      29.61R
MCCOOK         CLOUDY    49  41  74 E17       29.58R

...EASTERN NEBRASKA...

CITY           SKY/WX    TMP DP  RH WIND       PRES   REMARKS
NORFOLK        MOCLDY    51  34  52 E5        29.71R
SO SIOUX CITY  CLEAR     51  36  56 N5        29.74R
TEKAMAH        MOCLDY    56  32  40 CALM      29.72R
COLUMBUS       CLOUDY    55  34  44 CALM      29.72R
ALBION         CLOUDY    53  36  50 SE6       29.70R
OMAHA EPPLEY   MOCLDY    57  32  38 NE3       29.72R
OFFUTT AFB     CLOUDY    56  31  38 CALM      29.72R
MILLARD        CLOUDY    57  37  46 CALM      29.73R
LINCOLN        CLOUDY    53  37  54 S5        29.73R
NEBRASKA CITY  CLOUDY    56  27  33 CALM      29.73R
BEATRICE       DRIZZLE   53  44  73 S5        29.73R
FALLS CITY     CLOUDY    56  40  55 SW15      29.74R

...NORTHERN KANSAS...

CITY           SKY/WX    TMP DP  RH WIND       PRES   REMARKS
GOODLAND       RAIN      45  42  89 NW12      29.52S
HILL CITY      CLOUDY    50  43  77 E20G28    29.58F
NORTON         CLOUDY    48  39  71 E21G26    29.59F
PHILLIPSBURG   CLOUDY    48  43  81 E15       29.63S
SMITH CENTER   DRIZZLE   45  43  93 E16       29.65S
HAYS           RAIN      48  46  93 E25G32    29.57F FOG
RUSSELL        HVY RAIN  49  46  90 E16G24    29.61R FOG
CONCORDIA      CLOUDY    48  46  93 E10       29.68F
SALINA         LGT RAIN  54  48  80 E9        29.65F
TOPEKA         LGT RAIN  54  49  83 E6        29.74F



USA.gov is the U.S. government's official web portal to all federal, state and local government web resources and services.